Tracking 18852 objects as of 24-Nov-2017
HD Live streaming from Space Station
objects crossing your sky now

SL-16 DEB

Track SL-16 DEB now!
10-day predictions


NORAD ID: 23089
Int'l Code: 1994-023C
Perigee: 848.9 km
Apogee: 1,138.7 km
Inclination: 71.0 °
Period: 104.8 minutes
Semi major axis: 7364 km
RCS: 0.0902 m2 (small)
Launch date: April 23, 1994
Source: Commonwealth of Independent States (former USSR) (CIS)
Launch site: TYURATAM MISSILE AND SPACE COMPLEX (TTMTR)

Note: This is SATELLITE DEBRIS
aabbcc
Your satellite tracking list
Your tracking list is empty




NASA's NSSDC Master Catalog

Two Line Element Set (TLE):
1 23089U 94023C   17327.76748507 +.00000029 +00000-0 +65526-4 0  9993
2 23089 071.0253 090.6616 0196741 092.2184 270.1458 13.73594707182121
Source of the keplerian elements: AFSPC